Location: Aulnoy
(48.8410°N, 3.0967°E)
Time: 09:52:43
(UTC+00:00)

Lacrosse 5 - Pass Details

Date: 09 February 2023
Orbit: 714 x 724 km, 57.0° (Epoch: 09 March)

Event Time Altitude Azimuth Distance (km) Brightness Sun altitude
Rises 18:16:11 0° 267° (W) 3,135 7.2 -13.3°
Reaches altitude 10° 18:18:42 10° 275° (W) 2,216 5.8 -13.7°
Maximum altitude 18:23:30 39° 344° (NNW) 1,078 2.8 -14.5°
Enters shadow 18:27:06 17° 47° (NE) 1,814 3.5 -15.0°
